Flag for U.S.A. Weather past 2 weeks in Lafayette, Louisiana, U.S.A.

Now
78 °F

Sunny.


Feels Like: 80 °F
Forecast: 62 / 90 °F
Wind: 3 mph from East

Location: Lafayette Regional Airport

Current Time: Aug 28, 2015 at 10:51:10 AM

Latest Report: Aug 28, 2015 at 9:53 AM


Visibility: 10 mi

Pressure: 30.03 "Hg

Humidity: 66%

Dew point: 66 °F

Location of LafayetteLocation

Historic Weather in Lafayette — Graph

°F

Lafayette temperature yesterday

Maximum temperature yesterday: 88 °F (at 2:53 PM)
Minimum temperature yesterday: 64 °F (at 6:53 AM)
Average temperature yesterday: 76 °F

Past Weeks' High & Low Weather Summary

 TemperatureHumidityPressure
High97 °F (Aug 13, 2:53 PM)97% (Aug 22, 3:53 AM)30.11 "Hg (Aug 22, 3:53 AM)
Low64 °F (Aug 26, 6:53 AM)30% (Aug 27, 4:53 PM)29.86 "Hg (Aug 19, 4:53 AM)
Average80 °F75%29.98 "Hg
* Reported Aug 13 9:53 AM — Aug 28 9:53 AM, Lafayette, Weather by CustomWeather, © 2015

Note: Actual official high and low records may vary slightly from our data, if they occured in-between our weather recording intervals... More about our weather records

Advertising

Lafayette weather history for previous 24 hours

 ConditionsComfort  
Time TempWeatherWind HumidityBarometerVisibility
9:53 AM
Fri, Aug 28
78 °FSunny.3 mph66%30.03 "Hg10 mi
8:53 AM73 °FSunny.No wind76%30.02 "Hg10 mi
7:53 AM68 °FSunny.3 mph84%30.00 "Hg10 mi
6:53 AM65 °FClear.No wind87%29.98 "Hg10 mi
5:53 AM65 °FClear.No wind87%29.98 "Hg10 mi
4:53 AM67 °FClear.No wind79%29.97 "Hg10 mi
3:53 AM67 °FClear.No wind85%29.97 "Hg10 mi
2:53 AM68 °FClear.No wind82%29.98 "Hg10 mi
1:53 AM68 °FClear.No wind90%29.98 "Hg10 mi
12:53 AM68 °FClear.No wind87%29.99 "Hg10 mi
11:53 PM
Thu, Aug 27
70 °FClear.No wind87%29.99 "Hg10 mi
10:53 PM70 °FClear.No wind84%30.00 "Hg10 mi
9:53 PM71 °FClear.No wind87%29.99 "Hg10 mi
8:53 PM73 °FClear.No wind81%29.98 "Hg10 mi
7:53 PM77 °FSunny.No wind69%29.97 "Hg10 mi
6:53 PM83 °FSunny.No wind46%29.97 "Hg10 mi
5:53 PM86 °FSunny.9 mph35%29.97 "Hg10 mi
4:53 PM88 °FSunny.14 mph30%29.97 "Hg10 mi
3:53 PM88 °FSunny.10 mph33%29.97 "Hg10 mi
2:53 PM88 °FSunny.16 mph33%30.00 "Hg10 mi
1:53 PM87 °FSunny.15 mph35%30.01 "Hg10 mi
12:53 PM84 °FSunny.14 mph40%30.03 "Hg10 mi
11:53 AM83 °FSunny.12 mph41%30.05 "Hg10 mi
10:53 AM81 °FSunny.5 mph44%30.07 "Hg10 mi
Weather by CustomWeather, © 2015

See weather overviewHow to use our weather pages